This demonstration page uses our WeatherBlox Daily Observations layout. Learn more.

Left ArrowRight Arrow

36.17497, -115.13722

Hourly Observations for June 8, 2019

Temp ( °F °C ) Dew Point ( °F °C ) Humidity (%) Winds ( mph kmh ) Pressure ( in mb ) Visibility ( mi km ) Precip ( " mm )
12:53 am 00:53 Clear 80 26.7 37 2.8 21 21 S 17 28 29.71 1006 10 16 0.00 0.00
1:53 am 01:53 Clear 79 26.1 39 3.9 24 24 S 13 20 29.71 1006 10 16 0.00 0.00
2:53 am 02:53 Clear 78 25.6 37 2.8 23 23 W 10 17 29.74 1007 10 16 0.00 0.00
3:53 am 03:53 Clear 75 23.9 37 2.8 25 25 NNW 5 7 29.77 1008 10 16 0.00 0.00
4:53 am 04:53 Clear 74 23.3 32 0 21 21 NNE 5 7 29.81 1010 10 16 0.00 0.00
5:53 am 05:53 Sunny 74 23.3 31 -0.6 20 20 N 16 26 29.84 1010 10 16 0.00 0.00
6:53 am 06:53 Sunny 74 23.3 31 -0.6 20 20 NNW 23 37 29.87 1012 10 16 0.00 0.00
7:53 am 07:53 Sunny 75 23.9 29 -1.7 18 18 NNW 24 39 29.90 1012 10 16 0.00 0.00
8:53 am 08:53 Sunny 76 24.4 29 -1.7 18 18 N 25 41 29.93 1014 10 16 0.00 0.00
9:53 am 09:53 Sunny 78 25.6 30 -1.1 17 17 N 21 33 29.94 1014 10 16 0.00 0.00
10:53 am 10:53 Sunny 81 27.2 30 -1.1 16 16 NNW 20 31 29.95 1014 10 16 0.00 0.00
11:53 am 11:53 Sunny 84 28.9 31 -0.6 15 15 NNE 12 19 29.96 1014 10 16 0.00 0.00
12:53 pm 12:53 Sunny 85 29.4 30 -1.1 14 14 N 13 20 29.94 1014 10 16 0.00 0.00
1:53 pm 13:53 Sunny 86 30 31 -0.6 14 14 NNW 6 9 29.93 1014 10 16 0.00 0.00
2:53 pm 14:53 Sunny 87 30.6 31 -0.6 13 13 W 7 11 29.93 1014 10 16 0.00 0.00
3:53 pm 15:53 Sunny 88 31.1 30 -1.1 12 12 VRB 6 9 29.92 1013 10 16 0.00 0.00
4:53 pm 16:53 Sunny 89 31.7 30 -1.1 12 12 Calm 29.91 1013 10 16 0.00 0.00
5:53 pm 17:53 Sunny 88 31.1 30 -1.1 12 12 Calm 29.91 1013 10 16 0.00 0.00
6:53 pm 18:53 Sunny 88 31.1 30 -1.1 12 12 VRB 3 6 29.92 1013 10 16 0.00 0.00
7:53 pm 19:53 Sunny 86 30 32 0 14 14 E 7 11 29.93 1014 10 16 0.00 0.00
8:53 pm 20:53 Clear 85 29.4 32 0 15 15 ENE 6 9 29.95 1014 10 16 0.00 0.00
9:53 pm 21:53 Clear 83 28.3 30 -1.1 15 15 N 7 11 29.98 1015 10 16 0.00 0.00
10:53 pm 22:53 Clear 82 27.8 30 -1.1 15 15 N 9 15 29.99 1016 10 16 0.00 0.00
11:53 pm 23:53 Clear 80 26.7 26 -3.3 14 14 E 9 15 30.02 1017 10 16 0.00 0.00

Powered by AerisWeather